| time (UTC) | temp F | wind direction | speed knots | gust knots | rain 1hr in | rain 24hr in | rain mn in | humidity % | barometer mb |
| 20260506091023 | 61 | 212 | 2.6 | 2.6 | 0.00 | 0.34 | 0.29 | 66 | 1006.8 |
| 20260506090048 | 61 | 227 | 2.6 | 5.2 | 0.00 | 0.34 | 0.29 | 66 | 1006.8 |
| 20260506085034 | 62 | 214 | 1.7 | 2.6 | 0.00 | 0.34 | 0.29 | 66 | 1006.8 |
| 20260506084050 | 61 | 229 | 1.7 | 2.6 | 0.00 | 0.34 | 0.29 | 66 | 1006.8 |
| 20260506083045 | 61 | 182 | 1.7 | 4.3 | 0.00 | 0.34 | 0.29 | 67 | 1006.8 |
| 20260506082047 | 60 | 205 | 1.7 | 1.7 | 0.00 | 0.34 | 0.29 | 66 | 1006.8 |
| 20260506081053 | 61 | 228 | 3.5 | 7.0 | 0.00 | 0.34 | 0.29 | 64 | 1006.8 |
| 20260506073030 | 61 | 190 | 2.6 | 4.3 | 0.00 | 0.34 | 0.29 | 68 | 1006.8 |
| 20260506072044 | 60 | 196 | 1.7 | 4.3 | 0.00 | 0.34 | 0.29 | 70 | 1006.8 |
| 20260506071023 | 59 | 256 | 1.7 | 5.2 | 0.00 | 0.34 | 0.29 | 73 | 1006.8 |
| 20260506070117 | 58 | 226 | 1.7 | 2.6 | 0.00 | 0.34 | 0.29 | 76 | 1006.8 |
| 20260506062023 | 56 | 237 | 1.7 | 2.6 | 0.00 | 0.34 | 0.29 | 81 | 1006.8 |
| 20260506060538 | 56 | 210 | 1.7 | 1.7 | 0.00 | 0.34 | 0.29 | 82 | 1006.8 |
| 20260506050517 | 54 | 221 | 0.9 | 1.7 | 0.00 | 0.34 | 0.29 | 84 | 1006.8 |
| 20260506044557 | 54 | 66 | 0.0 | 1.7 | 0.00 | 0.34 | 0.29 | 82 | 1005.8 |
| 20260506043047 | 53 | 181 | 1.7 | 1.7 | 0.00 | 0.34 | 0.29 | 80 | 1006.8 |
| 20260506042059 | 53 | 157 | 0.9 | 1.7 | 0.00 | 0.34 | 0.29 | 79 | 1005.8 |
| 20260506041027 | 53 | 129 | 0.9 | 1.7 | 0.00 | 0.34 | 0.29 | 79 | 1005.8 |
| 20260506040045 | 53 | 291 | 0.9 | 2.6 | 0.00 | 0.34 | 0.29 | 78 | 1005.8 |
| 20260506035018 | 53 | 115 | 0.0 | 1.7 | 0.00 | 0.34 | 0.29 | 79 | 1005.8 |
| 20260506034037 | 53 | 90 | 0.0 | 1.7 | 0.00 | 0.34 | 0.29 | 80 | 1005.8 |
| 20260506033043 | 53 | 194 | 0.9 | 1.7 | 0.00 | 0.34 | 0.29 | 81 | 1005.8 |
| 20260506032017 | 53 | 159 | 0.9 | 1.7 | 0.00 | 0.34 | 0.29 | 80 | 1005.8 |
| 20260506031045 | 53 | 233 | 0.0 | 0.9 | 0.00 | 0.34 | 0.29 | 81 | 1005.8 |
| 20260506030035 | 53 | 178 | 0.9 | 1.7 | 0.00 | 0.34 | 0.29 | 79 | 1005.8 |
| 20260506025015 | 53 | 139 | 0.9 | 2.6 | 0.00 | 0.34 | 0.29 | 78 | 1005.8 |
| 20260506024025 | 53 | 0.0 | 0.0 | 0.00 | 0.34 | 0.29 | 75 | 1006.4 | |
| 20260506023059 | 53 | 90 | 0.0 | 0.9 | 0.00 | 0.34 | 0.29 | 75 | 1006.8 |
| 20260506022025 | 54 | 0.0 | 0.0 | 0.00 | 0.34 | 0.29 | 75 | 1006.8 | |
| 20260506021107 | 54 | 0.0 | 0.0 | 0.00 | 0.34 | 0.29 | 75 | 1006.8 | |
| 20260506020028 | 54 | 0.0 | 0.0 | 0.00 | 0.34 | 0.29 | 76 | 1006.8 | |
| 20260506015058 | 54 | 0.0 | 0.0 | 0.00 | 0.34 | 0.29 | 77 | 1006.8 | |
| 20260506013553 | 54 | 0.0 | 0.0 | 0.00 | 0.34 | 0.29 | 75 | 1006.8 | |
| 20260506012537 | 54 | 0.0 | 0.0 | 0.00 | 0.34 | 0.29 | 76 | 1006.8 | |
| 20260506011515 | 55 | 0.0 | 0.0 | 0.00 | 0.34 | 0.29 | 76 | 1006.8 | |
| 20260506010611 | 54 | 33 | 0.0 | 0.0 | 0.00 | 0.34 | 0.29 | 76 | 1006.8 |
| 20260506005515 | 55 | 135 | 0.0 | 0.9 | 0.00 | 0.34 | 0.29 | 78 | 1006.8 |
| 20260506004527 | 54 | 0.0 | 0.0 | 0.00 | 0.34 | 0.29 | 81 | 1006.8 | |
| 20260506003526 | 54 | 225 | 0.0 | 0.9 | 0.00 | 0.34 | 0.29 | 82 | 1006.8 |
| 20260506002534 | 55 | 0.0 | 0.0 | 0.00 | 0.34 | 0.29 | 79 | 1006.2 | |
| 20260506001545 | 55 | 0.0 | 0.0 | 0.00 | 0.34 | 0.29 | 80 | 1005.8 | |
| 20260506000027 | 54 | 45 | 0.0 | 0.0 | 0.00 | 0.34 | 0.29 | 82 | 1005.8 |
| 20260505235033 | 54 | 215 | 1.7 | 2.6 | 0.00 | 0.34 | 0.29 | 84 | 1005.8 |
| 20260505234017 | 55 | 45 | 0.0 | 1.7 | 0.17 | 0.34 | 0.29 | 73 | 1006.4 |
| 20260505233027 | 55 | 68 | 0.0 | 1.7 | 0.17 | 0.34 | 0.29 | 73 | 1006.8 |
| 20260505232029 | 55 | 53 | 1.7 | 1.7 | 0.12 | 0.28 | 0.24 | 73 | 1007.8 |
| 20260505231025 | 55 | 56 | 0.0 | 0.9 | 0.12 | 0.28 | 0.24 | 74 | 1008.5 |
| 20260505230026 | 55 | 22 | 0.0 | 0.0 | 0.04 | 0.21 | 0.16 | 74 | 1008.9 |
| 20260505225023 | 55 | 0.0 | 0.0 | 0.00 | 0.17 | 0.12 | 77 | 1008.9 | |
| 20260505224051 | 55 | 145 | 1.7 | 2.6 | 0.13 | 0.13 | 0.08 | 80 | 1008.9 |
| 20260505223024 | 55 | 235 | 1.7 | 4.3 | 0.13 | 0.13 | 0.08 | 81 | 1008.9 |
| 20260505221526 | 56 | 257 | 1.7 | 1.7 | 0.13 | 0.13 | 0.08 | 81 | 1008.9 |
| 20260505220538 | 57 | 289 | 1.7 | 2.6 | 0.13 | 0.13 | 0.08 | 77 | 1008.9 |
| 20260505215530 | 58 | 262 | 2.6 | 4.3 | 0.04 | 0.04 | 0.04 | 83 | 1008.2 |
| 20260505214620 | 58 | 216 | 3.5 | 6.1 | 0.00 | 0.00 | 0.00 | 81 | 1007.8 |
| 20260505213559 | 59 | 172 | 2.6 | 4.3 | 0.00 | 0.00 | 0.00 | 73 | 1006.8 |
| 20260505212539 | 60 | 358 | 2.6 | 4.3 | 0.00 | 0.00 | 0.00 | 65 | 1006.8 |
| 20260505211523 | 60 | 40 | 2.6 | 6.1 | 0.00 | 0.00 | 0.00 | 65 | 1006.8 |
| 20260505210554 | 60 | 28 | 3.5 | 4.3 | 0.00 | 0.00 | 0.00 | 63 | 1006.8 |
| 20260505205531 | 60 | 30 | 2.6 | 4.3 | 0.00 | 0.00 | 0.00 | 62 | 1006.8 |
| 20260505204544 | 60 | 29 | 1.7 | 2.6 | 0.00 | 0.00 | 0.00 | 61 | 1006.8 |
| 20260505203015 | 61 | 31 | 2.6 | 2.6 | 0.00 | 0.00 | 0.00 | 61 | 1006.8 |
| 20260505202016 | 61 | 33 | 3.5 | 4.3 | 0.00 | 0.00 | 0.00 | 61 | 1006.8 |
| 20260505201016 | 61 | 21 | 2.6 | 4.3 | 0.00 | 0.00 | 0.00 | 59 | 1006.8 |
| 20260505200056 | 61 | 356 | 2.6 | 4.3 | 0.00 | 0.00 | 0.00 | 59 | 1006.8 |
| 20260505195040 | 62 | 19 | 2.6 | 5.2 | 0.00 | 0.00 | 0.00 | 57 | 1006.8 |
| 20260505194024 | 62 | 41 | 1.7 | 3.5 | 0.00 | 0.00 | 0.00 | 57 | 1006.8 |
| 20260505193053 | 62 | 53 | 3.5 | 4.3 | 0.00 | 0.00 | 0.00 | 58 | 1006.8 |
| 20260505192108 | 62 | 32 | 2.6 | 4.3 | 0.00 | 0.00 | 0.00 | 55 | 1006.8 |
| 20260505190549 | 63 | 29 | 2.6 | 3.5 | 0.00 | 0.00 | 0.00 | 54 | 1006.8 |
| 20260505185536 | 63 | 70 | 2.6 | 5.2 | 0.00 | 0.00 | 0.00 | 53 | 1006.8 |
| 20260505184529 | 63 | 47 | 0.9 | 3.5 | 0.00 | 0.00 | 0.00 | 53 | 1006.8 |
| 20260505183547 | 64 | 14 | 1.7 | 3.5 | 0.00 | 0.00 | 0.00 | 52 | 1006.8 |
| 20260505182547 | 64 | 89 | 0.9 | 1.7 | 0.00 | 0.00 | 0.00 | 50 | 1006.8 |
| 20260505181602 | 64 | 58 | 1.7 | 3.5 | 0.00 | 0.00 | 0.00 | 1006.8 | |
| 20260505180523 | 65 | 25 | 1.7 | 4.3 | 0.00 | 0.00 | 0.00 | 48 | 1007.8 |
| 20260505175517 | 65 | 31 | 1.7 | 2.6 | 0.00 | 0.00 | 0.00 | 48 | 1007.8 |
| 20260505174610 | 66 | 24 | 2.6 | 4.3 | 0.00 | 0.00 | 0.00 | 47 | 1007.8 |
| 20260505173520 | 66 | 14 | 1.7 | 4.3 | 0.00 | 0.00 | 0.00 | 47 | 1007.8 |
| 20260505172554 | 66 | 51 | 0.9 | 1.7 | 0.00 | 0.00 | 0.00 | 47 | 1007.8 |
| 20260505171536 | 67 | 19 | 1.7 | 2.6 | 0.00 | 0.00 | 0.00 | 46 | 1007.8 |
| 20260505170524 | 67 | 24 | 2.6 | 6.1 | 0.00 | 0.00 | 0.00 | 46 | 1007.8 |
| 20260505165543 | 68 | 9 | 0.0 | 0.9 | 0.00 | 0.00 | 0.00 | 46 | 1007.8 |
| 20260505164527 | 68 | 29 | 1.7 | 2.6 | 0.00 | 0.00 | 0.00 | 45 | 1007.8 |
| 20260505163519 | 68 | 5 | 3.5 | 4.3 | 0.00 | 0.00 | 0.00 | 45 | 1007.8 |
| 20260505162548 | 68 | 67 | 1.7 | 2.6 | 0.00 | 0.00 | 0.00 | 44 | 1007.8 |
| 20260505161016 | 69 | 27 | 3.5 | 7.0 | 0.00 | 0.00 | 0.00 | 44 | 1007.8 |
| 20260505160112 | 69 | 48 | 4.3 | 6.1 | 0.00 | 0.00 | 0.00 | 44 | 1007.8 |
| 20260505153016 | 69 | 43 | 2.6 | 4.3 | 0.00 | 0.00 | 0.00 | 44 | 1007.8 |
| 20260505152054 | 69 | 34 | 1.7 | 2.6 | 0.00 | 0.00 | 0.00 | 44 | 1007.8 |
| 20260505151028 | 69 | 42 | 3.5 | 5.2 | 0.00 | 0.00 | 0.00 | 43 | 1008.2 |
| 20260505140540 | 73 | 347 | 1.7 | 3.5 | 0.00 | 0.00 | 0.00 | 41 | 1008.9 |
| 20260505124602 | 75 | 41 | 3.5 | 5.2 | 0.00 | 0.00 | 0.00 | 38 | 1008.9 |
| 20260505123550 | 76 | 44 | 1.7 | 2.6 | 0.00 | 0.00 | 0.00 | 38 | 1008.9 |
| 20260505122534 | 77 | 339 | 1.7 | 2.6 | 0.00 | 0.00 | 0.00 | 37 | 1008.9 |
| 20260505121540 | 78 | 28 | 3.5 | 4.3 | 0.00 | 0.00 | 0.00 | 37 | 1008.9 |
| 20260505120556 | 78 | 52 | 3.5 | 4.3 | 0.00 | 0.00 | 0.00 | 37 | 1008.9 |
| 20260505115725 | 78 | 19 | 3.5 | 4.3 | 0.00 | 0.00 | 0.00 | 37 | 1008.9 |
| 20260505114531 | 77 | 347 | 1.7 | 2.6 | 0.00 | 0.00 | 0.00 | 37 | 1008.9 |
| 20260505113538 | 77 | 47 | 3.5 | 4.3 | 0.00 | 0.00 | 0.00 | 38 | 1008.9 |
| 20260505112522 | 77 | 45 | 3.5 | 5.2 | 0.00 | 0.00 | 0.00 | 39 | 1008.9 |
| 20260505111559 | 78 | 345 | 3.5 | 6.1 | 0.00 | 0.00 | 0.00 | 38 | 1008.9 |
| 20260505110533 | 77 | 341 | 1.7 | 2.6 | 0.00 | 0.00 | 0.00 | 39 | 1009.9 |
| 20260505101546 | 75 | 263 | 1.7 | 2.6 | 0.00 | 0.00 | 0.00 | 41 | 1009.9 |
| 20260505100546 | 75 | 288 | 2.6 | 5.2 | 0.00 | 0.00 | 0.00 | 41 | 1009.9 |
| 20260505095546 | 72 | 93 | 0.9 | 0.9 | 0.00 | 0.00 | 0.00 | 43 | 1009.9 |
| 20260505094524 | 73 | 241 | 3.5 | 5.2 | 0.00 | 0.00 | 0.00 | 42 | 1009.9 |
| 20260505093523 | 72 | 276 | 2.6 | 3.5 | 0.00 | 0.00 | 0.00 | 43 | 1009.9 |
| 20260505092554 | 71 | 327 | 1.7 | 2.6 | 0.00 | 0.00 | 0.00 | 45 | 1009.9 |